[[{"header":{"parameterUnit":"m.s-1","parameterCategory":1,"la1":30.2991,"la2":30.254,"lo1":-89.0895,"lo2":-89.0444,"dx":0.0017,"dy":0.0017,"nx":28,"ny":28,"refTime":"2022-11-12T09:00:00:Z","depth":0,"parameterNumber":2,"parameterNumberName":"U-component_of_WINDS"},"data":[0,0,0,0,0,0,0,0,0,0,0,0,0,0,0,0,0,0,0,0,0,0,0,0,0,0,0,0,0,0,0,0,0,0,0,0,0,0,0,0,0,0,0,0,0,0,0,0,0,0,0,0,0,0,0,0,0,0,-0.3812,-0.3813,0,-0.3857,-0.3858,-0.3858,-0.3837,-0.3836,-0.3835,-0.3834,-0.3881,-0.3883,-0.3886,0,0,0,0,0,0,0,0,0,0,0,0,0,-0.3709,-0.3711,-0.3812,-0.3813,-0.3814,-0.3857,-0.3858,-0.3858,-0.3837,-0.3836,-0.3834,-0.3833,-0.388,-0.3883,-0.3886,0,0,0,0,0,0,0,0,0,0,0,0,0,-0.3754,-0.3712,-0.3812,-0.3808,-0.3808,-0.3857,-0.3858,-0.3858,-0.3838,-0.3836,-0.3834,-0.3833,-0.3879,-0.3883,-0.3886,-0.3942,0,0,-0.3897,-0.3898,0,0,0,0,0,0,0,0,-0.3751,-0.3758,-0.3808,-0.3809,-0.3809,-0.384,-0.3838,-0.3886,-0.3838,-0.3827,-0.3834,-0.3832,-0.3869,-0.3873,-0.3885,-0.3944,-0.3946,-0.3897,-0.3899,-0.3901,-0.3902,0,0,0,0,0,0,0,-0.3748,-0.3756,-0.383,-0.3809,-0.3809,-0.3804,-0.3809,-0.3847,-0.3857,-0.3827,-0.3826,-0.3831,-0.3869,-0.3882,-0.3886,-0.3947,-0.3897,-0.39,-0.3902,-0.3904,-0.4052,-0.4054,0,0,0,0,0,0,-0.3745,-0.3753,-0.3829,-0.3831,-0.3775,-0.3807,-0.3812,-0.3832,-0.3856,-0.3858,-0.3833,-0.383,-0.3877,-0.3882,-0.3888,-0.3954,-0.3901,-0.3904,-0.3906,-0.405,-0.4053,-0.4055,0,0,0,0,0,0,-0.3743,-0.3752,-0.3827,-0.3792,-0.3801,-0.3811,-0.3833,-0.3833,-0.3847,-0.386,-0.3862,-0.3845,-0.3876,-0.3883,-0.3928,-0.3956,-0.3905,-0.3909,-0.4048,-0.4051,-0.4054,-0.4088,0,0,0,0,0,0,-0.374,-0.3751,-0.3773,-0.3793,-0.3803,-0.3867,-0.3834,-0.3835,-0.3853,-0.385,-0.3872,-0.3874,-0.3875,-0.3923,-0.3932,-0.3959,-0.3911,-0.4046,-0.4049,-0.4053,-0.4084,-0.4091,-0.4098,0,0,0,0,0,-0.3737,-0.3781,-0.3774,-0.3783,-0.383,-0.3868,-0.3874,-0.3874,-0.3855,-0.3876,-0.3885,-0.3873,-0.3951,-0.3928,-0.3937,-0.3967,-0.4044,-0.4048,-0.4052,-0.4081,-0.409,-0.4097,0,0,0,0,0,0,-0.3766,-0.3784,-0.3776,-0.3829,-0.3847,-0.3865,-0.3892,-0.3883,-0.3908,-0.3905,-0.3903,-0.3908,-0.3955,-0.3965,-0.3939,-0.4021,-0.3994,-0.4001,-0.4013,-0.4022,-0.4028,-0.4025,-0.3914,0,0,0,0,0,-0.3778,-0.3808,-0.3822,-0.3867,-0.3876,-0.3883,-0.3899,-0.3897,-0.3916,-0.3924,-0.3936,-0.3956,-0.3984,-0.4003,-0.403,-0.4085,-0.4089,-0.4109,-0.4116,-0.4121,-0.4127,-0.4156,-0.4165,-0.4068,-0.4068,-0.4068,0,0,-0.3805,-0.3818,-0.3837,-0.3873,-0.3887,-0.3918,-0.389,-0.3923,-0.3946,-0.393,-0.3973,-0.3982,-0.4004,-0.4054,-0.4076,-0.4063,-0.4155,-0.4127,-0.4131,-0.4134,-0.4162,-0.4171,-0.4179,-0.4071,-0.4071,-0.407,0,0,-0.3869,-0.3882,-0.392,-0.3934,-0.3955,-0.3959,-0.3968,-0.3986,-0.3992,-0.4035,-0.4023,-0.4049,-0.4099,-0.4114,-0.4129,-0.4196,-0.4186,-0.4204,-0.424,-0.4268,-0.4276,-0.4282,-0.4307,-0.4315,-0.421,-0.421,-0.421,0,-0.3899,-0.3945,-0.3941,-0.3976,-0.3992,-0.3977,-0.4016,-0.403,-0.4059,-0.407,-0.4055,-0.4115,-0.4129,-0.4182,-0.4198,-0.421,-0.422,-0.4203,-0.4275,-0.4281,-0.4288,-0.4311,-0.432,-0.4212,-0.4212,-0.4212,-0.4212,0,-0.3981,-0.4013,-0.4041,-0.4069,-0.4088,-0.4124,-0.4126,-0.4146,-0.4141,-0.4146,-0.419,-0.4204,-0.4234,-0.4246,-0.4242,-0.4298,-0.429,-0.4274,-0.4248,-0.4299,-0.4321,-0.433,-0.4215,-0.4215,-0.4214,-0.4213,0,0,-0.4068,-0.4091,-0.4101,-0.4113,-0.4134,-0.4158,-0.4193,-0.4221,-0.4238,-0.4258,-0.4288,-0.4328,-0.4314,-0.433,-0.4328,-0.4352,-0.4404,-0.4334,-0.4334,-0.4347,-0.4467,-0.4479,-0.4489,-0.4397,-0.4398,-0.44,-0.4465,0,-0.4133,-0.4195,-0.4192,-0.425,-0.4279,-0.4263,-0.4294,-0.431,-0.4315,-0.434,-0.4345,-0.4374,-0.4353,-0.4362,-0.4386,-0.4393,-0.4428,-0.4388,-0.4425,-0.4426,-0.4421,-0.45,-0.4514,-0.4574,-0.4473,-0.4475,-0.4476,0,-0.4219,-0.4241,-0.4301,-0.4317,-0.4329,-0.4356,-0.4381,-0.4405,-0.4422,-0.4424,-0.444,-0.4433,-0.4469,-0.4439,-0.4488,-0.446,-0.4475,-0.448,-0.4483,-0.4487,-0.4455,-0.4508,-0.4594,-0.4603,-0.4489,-0.4488,-0.4487,0,-0.4277,-0.4321,-0.4363,-0.4373,-0.4392,-0.4411,-0.442,-0.4435,-0.4452,-0.4473,-0.4484,-0.4509,-0.4523,-0.4542,-0.4542,-0.4521,-0.4591,-0.4562,-0.4594,-0.4594,-0.4611,-0.461,-0.4701,-0.4618,-0.4618,-0.4618,-0.4617,0,-0.4352,-0.439,-0.4389,-0.4415,-0.4456,-0.4451,-0.4492,-0.4499,-0.4512,-0.4539,-0.4527,-0.4552,-0.4549,-0.4574,-0.4574,-0.4614,-0.462,-0.4623,-0.4622,-0.4625,-0.4624,-0.4635,-0.4632,-0.462,-0.4619,-0.4619,-0.4619,0,-0.4424,-0.4425,-0.4469,-0.4483,-0.4487,-0.4517,-0.4528,-0.4552,-0.4555,-0.4588,-0.4596,-0.46,-0.4629,-0.463,-0.4664,-0.4663,-0.4712,-0.4706,-0.4706,-0.4706,-0.4737,-0.4735,-0.484,-0.4853,-0.4761,-0.4761,-0.4762,0,-0.4473,-0.4501,-0.4517,-0.4533,-0.4543,-0.457,-0.4586,-0.4582,-0.4599,-0.462,-0.4642,-0.4669,-0.4691,-0.4737,-0.4744,-0.4769,-0.4764,-0.4799,-0.4768,-0.4769,-0.4765,-0.4764,-0.4767,-0.4806,-0.4807,-0.4808,-0.4808,0,-0.4559,-0.4557,-0.4581,-0.4604,-0.4624,-0.4642,-0.4659,-0.4674,-0.4671,-0.4691,-0.472,-0.4737,-0.477,-0.4797,-0.4821,-0.4829,-0.4819,-0.4818,-0.4826,-0.483,-0.4829,-0.483,-0.4724,-0.4816,-0.4815,-0.4815,-0.4814,-0.4814,-0.4621,-0.4646,-0.466,-0.4686,-0.4698,-0.4714,-0.4737,-0.4742,-0.4766,-0.4792,-0.4787,-0.482,-0.4834,-0.4865,-0.4875,-0.49,-0.4888,-0.4901,-0.4904,-0.4908,-0.4911,-0.4823,-0.4904,-0.4904,-0.4904,-0.4904,-0.4904,0,-0.4707,-0.4715,-0.4739,-0.4763,-0.4783,-0.477,-0.4787,-0.4806,-0.4834,-0.4848,-0.4869,-0.4902,-0.4927,-0.4935,-0.4959,-0.4978,-0.4973,-0.4985,-0.4984,-0.4986,-0.4921,-0.4911,-0.4988,-0.4988,-0.4988,-0.4988,-0.4988,-0.4988,-0.4755,-0.4795,-0.4795,-0.484,-0.4847,-0.4878,-0.489,-0.4904,-0.4915,-0.4952,-0.4973,-0.4977,-0.4988,-0.5013,-0.5036,-0.5037,-0.5047,-0.506,-0.506,-0.4999,-0.4991,-0.4983,-0.4974,-0.5062,-0.5062,-0.5123,-0.5124,-0.5124]},{"header":{"parameterUnit":"m.s-1","parameterCategory":1,"la1":30.2991,"la2":30.254,"lo1":-89.0895,"lo2":-89.0444,"dx":0.0017,"dy":0.0017,"nx":28,"ny":28,"refTime":"2022-11-12T09:00:00:Z","depth":0,"parameterNumber":3,"parameterNumberName":"V-component_of_WINDS"},"data":[0,0,0,0,0,0,0,0,0,0,0,0,0,0,0,0,0,0,0,0,0,0,0,0,0,0,0,0,0,0,0,0,0,0,0,0,0,0,0,0,0,0,0,0,0,0,0,0,0,0,0,0,0,0,0,0,0,0,-8.6214,-8.6216,0,-8.6382,-8.6384,-8.6386,-8.6286,-8.6281,-8.6277,-8.6272,-8.6436,-8.6445,-8.6454,0,0,0,0,0,0,0,0,0,0,0,0,0,-8.58,-8.5808,-8.6214,-8.6216,-8.6219,-8.6382,-8.6384,-8.6386,-8.6287,-8.6281,-8.6275,-8.627,-8.6433,-8.6444,-8.6454,0,0,0,0,0,0,0,0,0,0,0,0,0,-8.5975,-8.5811,-8.6214,-8.6189,-8.6188,-8.6381,-8.6384,-8.6387,-8.6288,-8.6281,-8.6274,-8.6267,-8.643,-8.6443,-8.6456,-8.6681,0,0,-8.6496,-8.6502,0,0,0,0,0,0,0,0,-8.5965,-8.599,-8.619,-8.6191,-8.6191,-8.6306,-8.6298,-8.6485,-8.629,-8.625,-8.6272,-8.6264,-8.6398,-8.6414,-8.6461,-8.6688,-8.6696,-8.6497,-8.6505,-8.6511,-8.6515,0,0,0,0,0,0,0,-8.5953,-8.5982,-8.628,-8.6193,-8.6194,-8.6166,-8.6183,-8.6333,-8.6362,-8.6253,-8.6246,-8.6268,-8.6397,-8.6448,-8.6464,-8.6698,-8.6497,-8.6509,-8.6517,-8.6522,-8.7117,-8.7124,0,0,0,0,0,0,-8.5944,-8.5973,-8.6275,-8.6285,-8.6058,-8.618,-8.6199,-8.6276,-8.636,-8.6366,-8.6274,-8.6262,-8.6429,-8.6448,-8.6469,-8.6737,-8.6511,-8.6523,-8.6531,-8.7109,-8.7118,-8.7127,0,0,0,0,0,0,-8.5935,-8.5972,-8.6268,-8.6128,-8.6163,-8.6195,-8.6282,-8.6283,-8.6334,-8.6376,-8.638,-8.6321,-8.6424,-8.645,-8.6629,-8.6741,-8.6529,-8.6541,-8.71,-8.7112,-8.7123,-8.7276,0,0,0,0,0,0,-8.5924,-8.5969,-8.6057,-8.613,-8.6171,-8.6429,-8.6289,-8.6292,-8.6358,-8.6345,-8.6422,-8.6427,-8.642,-8.661,-8.6642,-8.6756,-8.6552,-8.709,-8.7105,-8.7119,-8.7261,-8.7291,-8.7317,0,0,0,0,0,-8.5909,-8.6092,-8.6062,-8.6099,-8.6282,-8.6435,-8.6458,-8.6449,-8.6368,-8.6455,-8.6481,-8.6425,-8.6724,-8.6629,-8.6665,-8.6784,-8.7082,-8.7101,-8.7118,-8.7248,-8.7285,-8.7317,0,0,0,0,0,0,-8.6029,-8.6101,-8.6069,-8.6281,-8.6353,-8.6418,-8.6528,-8.6489,-8.6583,-8.6567,-8.6549,-8.6567,-8.6753,-8.6786,-8.6679,-8.7005,-8.689,-8.6916,-8.6977,-8.7013,-8.704,-8.7028,-8.6563,0,0,0,0,0,-8.6081,-8.6202,-8.6257,-8.6439,-8.6477,-8.6497,-8.6563,-8.655,-8.6622,-8.6652,-8.6691,-8.6761,-8.6871,-8.6943,-8.7047,-8.7265,-8.7279,-8.7364,-8.7392,-8.7415,-8.7437,-8.7554,-8.7592,-8.7185,-8.7185,-8.7184,0,0,-8.6188,-8.6242,-8.6319,-8.6465,-8.6519,-8.6642,-8.6523,-8.6658,-8.6749,-8.6671,-8.6843,-8.6874,-8.6951,-8.7151,-8.724,-8.7184,-8.7553,-8.7438,-8.7456,-8.7466,-8.7576,-8.7614,-8.7648,-8.7197,-8.7195,-8.7193,0,0,-8.6446,-8.65,-8.6657,-8.6714,-8.6798,-8.681,-8.6848,-8.6919,-8.6938,-8.711,-8.7054,-8.716,-8.7349,-8.7406,-8.746,-8.7739,-8.769,-8.7773,-8.792,-8.8034,-8.8066,-8.8094,-8.8193,-8.8228,-8.7795,-8.7795,-8.7795,0,-8.6567,-8.6754,-8.6742,-8.6883,-8.6947,-8.6885,-8.7042,-8.7097,-8.721,-8.7255,-8.719,-8.7427,-8.7474,-8.7685,-8.7753,-8.7799,-8.784,-8.7764,-8.8063,-8.8091,-8.8117,-8.8211,-8.8248,-8.7805,-8.7804,-8.7803,-8.7802,0,-8.6898,-8.7028,-8.7144,-8.7257,-8.7335,-8.7483,-8.7491,-8.7571,-8.755,-8.7568,-8.7743,-8.7798,-8.7911,-8.796,-8.794,-8.8168,-8.813,-8.8065,-8.7949,-8.8166,-8.8253,-8.8289,-8.7818,-8.7815,-8.7812,-8.781,0,0,-8.7237,-8.7342,-8.7385,-8.7435,-8.7523,-8.7621,-8.7765,-8.7878,-8.7945,-8.8025,-8.8143,-8.8305,-8.8245,-8.8306,-8.8292,-8.8392,-8.8608,-8.8314,-8.8316,-8.8366,-8.886,-8.8909,-8.895,-8.8576,-8.8583,-8.8588,-8.8853,0,-8.7499,-8.7755,-8.7748,-8.7984,-8.8102,-8.8044,-8.8169,-8.8235,-8.8255,-8.8356,-8.8376,-8.8491,-8.8404,-8.844,-8.8537,-8.8562,-8.8707,-8.8542,-8.8684,-8.8689,-8.8667,-8.8996,-8.9048,-8.9296,-8.8888,-8.8893,-8.8898,0,-8.7841,-8.7934,-8.8182,-8.8252,-8.8301,-8.8414,-8.8516,-8.8615,-8.8687,-8.8694,-8.8763,-8.8733,-8.8876,-8.8757,-8.8952,-8.884,-8.8897,-8.8918,-8.8927,-8.894,-8.8806,-8.9017,-8.9375,-8.9412,-8.8952,-8.8947,-8.8943,0,-8.8062,-8.8249,-8.8421,-8.8466,-8.8552,-8.8632,-8.8671,-8.8737,-8.8805,-8.8893,-8.8936,-8.9039,-8.9095,-8.9174,-8.9171,-8.9085,-8.9369,-8.925,-8.9377,-8.9377,-8.9439,-8.9435,-8.9811,-8.9477,-8.9477,-8.9476,-8.9475,0,-8.8356,-8.851,-8.8522,-8.8628,-8.8798,-8.8788,-8.8955,-8.8985,-8.9044,-8.9153,-8.9108,-8.921,-8.9201,-8.9304,-8.9302,-8.9464,-8.9489,-8.9497,-8.9495,-8.9501,-8.95,-8.9538,-8.9521,-8.9486,-8.9484,-8.9482,-8.948,0,-8.8631,-8.8646,-8.883,-8.8897,-8.8917,-8.9039,-8.9095,-8.9194,-8.921,-8.9348,-8.938,-8.9404,-8.9522,-8.9528,-8.9663,-8.9662,-8.9858,-8.9837,-8.9835,-8.9831,-8.9957,-8.9945,-9.037,-9.0425,-9.0056,-9.006,-9.0063,0,-8.8818,-8.8936,-8.9015,-8.9086,-8.9131,-8.9245,-8.9315,-8.9308,-8.9381,-8.9473,-8.956,-8.9675,-8.9766,-8.9958,-8.9985,-9.0088,-9.0069,-9.021,-9.0084,-9.0086,-9.007,-9.0063,-9.0074,-9.0235,-9.0239,-9.0242,-9.0245,0,-8.9147,-8.9149,-8.9252,-8.9359,-8.9443,-8.9526,-8.9602,-8.9662,-8.9664,-8.9748,-8.987,-8.9941,-9.008,-9.0194,-9.0294,-9.033,-9.0288,-9.0285,-9.032,-9.0327,-9.0321,-9.0325,-8.9902,-9.0275,-9.0272,-9.027,-9.0268,-9.0267,-8.9384,-8.9485,-8.9557,-8.9673,-8.973,-8.9803,-8.99,-8.9928,-9.0031,-9.0145,-9.0134,-9.0269,-9.0336,-9.0466,-9.0511,-9.0614,-9.0565,-9.0616,-9.0629,-9.0641,-9.0654,-9.0305,-9.0633,-9.0632,-9.0631,-9.063,-9.063,0,-8.971,-8.9754,-8.9861,-8.997,-9.0061,-9.0016,-9.0097,-9.0175,-9.0296,-9.0363,-9.0455,-9.0594,-9.0703,-9.074,-9.0846,-9.0921,-9.0904,-9.0949,-9.0943,-9.0952,-9.0693,-9.0652,-9.0961,-9.0961,-9.0961,-9.0961,-9.0961,-9.0961,-8.9891,-9.006,-9.0069,-9.0265,-9.0306,-9.044,-9.0491,-9.0556,-9.061,-9.0769,-9.0861,-9.0884,-9.0939,-9.1048,-9.1146,-9.1153,-9.1193,-9.1247,-9.1246,-9.1003,-9.097,-9.0938,-9.09,-9.1256,-9.1256,-9.1496,-9.1499,-9.15]}]]